Year,Month,Day,Hour,Minute,Value (Times are PST for temperature in C)
2016,03,31,00,00,11.30
2016,03,31,00,01,11.40
2016,03,31,00,02,11.40
2016,03,31,00,03,11.40
2016,03,31,00,04,11.30
2016,03,31,00,05,11.30
2016,03,31,00,06,11.30
2016,03,31,00,07,11.40
2016,03,31,00,08,11.40
2016,03,31,00,09,11.40
2016,03,31,00,10,11.40
2016,03,31,00,11,11.30
2016,03,31,00,12,11.30
2016,03,31,00,13,11.30
2016,03,31,00,14,11.30
2016,03,31,00,15,11.30
2016,03,31,00,16,11.20
2016,03,31,00,17,11.20
2016,03,31,00,18,11.10
2016,03,31,00,19,11.10
2016,03,31,00,20,11.10
2016,03,31,00,21,11.10
2016,03,31,00,22,11.10
2016,03,31,00,23,11.10
2016,03,31,00,24,11.10
2016,03,31,00,25,11.00
2016,03,31,00,26,11.00
2016,03,31,00,27,11.00
2016,03,31,00,28,11.00
2016,03,31,00,29,10.90
2016,03,31,00,30,10.90
2016,03,31,00,31,10.90
2016,03,31,00,32,10.80
2016,03,31,00,33,10.80
2016,03,31,00,34,10.80
2016,03,31,00,35,10.70
2016,03,31,00,36,10.60
2016,03,31,00,37,10.60
2016,03,31,00,38,10.50
2016,03,31,00,39,10.50
2016,03,31,00,40,10.40
2016,03,31,00,41,10.40
2016,03,31,00,42,10.40
2016,03,31,00,43,10.30
2016,03,31,00,44,10.30
2016,03,31,00,45,10.30
2016,03,31,00,46,10.20
2016,03,31,00,47,10.20
2016,03,31,00,48,10.20
2016,03,31,00,49,10.10
2016,03,31,00,50,10.10
2016,03,31,00,51,10.10
2016,03,31,00,52,10.00
2016,03,31,00,53,10.00
2016,03,31,00,54,9.90
2016,03,31,00,55,9.90
2016,03,31,00,56,9.80
2016,03,31,00,57,9.80
2016,03,31,00,58,9.70
2016,03,31,00,59,9.70
2016,03,31,01,00,9.70
2016,03,31,01,01,9.60
2016,03,31,01,02,9.60
2016,03,31,01,03,9.50
2016,03,31,01,04,9.50
2016,03,31,01,05,9.40
2016,03,31,01,06,9.40
2016,03,31,01,07,9.40
2016,03,31,01,08,9.30
2016,03,31,01,09,9.30
2016,03,31,01,10,9.30
2016,03,31,01,11,9.30
2016,03,31,01,12,9.30
2016,03,31,01,13,9.20
2016,03,31,01,14,9.20
2016,03,31,01,15,9.20
2016,03,31,01,16,9.20
2016,03,31,01,17,9.20
2016,03,31,01,18,9.20
2016,03,31,01,19,9.20
2016,03,31,01,20,9.20
2016,03,31,01,21,9.10
2016,03,31,01,22,9.10
2016,03,31,01,23,9.10
2016,03,31,01,24,9.10
2016,03,31,01,25,9.10
2016,03,31,01,26,9.10
2016,03,31,01,27,9.10
2016,03,31,01,28,9.10
2016,03,31,01,29,9.10
2016,03,31,01,30,9.00
2016,03,31,01,31,9.00
2016,03,31,01,32,9.10
2016,03,31,01,33,9.10
2016,03,31,01,34,9.10
2016,03,31,01,35,9.10
2016,03,31,01,36,9.10
2016,03,31,01,37,9.10
2016,03,31,01,38,9.00
2016,03,31,01,39,9.00
2016,03,31,01,40,9.00
2016,03,31,01,41,9.00
2016,03,31,01,42,9.10
2016,03,31,01,43,9.10
2016,03,31,01,44,9.10
2016,03,31,01,45,9.10
2016,03,31,01,46,9.10
2016,03,31,01,47,9.10
2016,03,31,01,48,9.10
2016,03,31,01,49,9.10
2016,03,31,01,50,9.00
2016,03,31,01,51,9.00
2016,03,31,01,52,9.10
2016,03,31,01,53,9.10
2016,03,31,01,54,9.10
2016,03,31,01,55,9.10
2016,03,31,01,56,9.20
2016,03,31,01,57,9.20
2016,03,31,01,58,9.30
2016,03,31,01,59,9.40
2016,03,31,02,00,9.50
2016,03,31,02,01,9.60
2016,03,31,02,02,9.60
2016,03,31,02,03,9.70
2016,03,31,02,04,9.70
2016,03,31,02,05,9.70
2016,03,31,02,06,9.70
2016,03,31,02,07,9.70
2016,03,31,02,08,9.70
2016,03,31,02,09,9.70
2016,03,31,02,10,9.70
2016,03,31,02,11,9.70
2016,03,31,02,12,9.70
2016,03,31,02,13,9.70
2016,03,31,02,14,9.70
2016,03,31,02,15,9.70
2016,03,31,02,16,9.70
2016,03,31,02,17,9.60
2016,03,31,02,18,9.60
2016,03,31,02,19,9.60
2016,03,31,02,20,9.50
2016,03,31,02,21,9.50
2016,03,31,02,22,9.40
2016,03,31,02,23,9.40
2016,03,31,02,24,9.40
2016,03,31,02,25,9.40
2016,03,31,02,26,9.40
2016,03,31,02,27,9.40
2016,03,31,02,28,9.40
2016,03,31,02,29,9.40
2016,03,31,02,30,9.40
2016,03,31,02,31,9.30
2016,03,31,02,32,9.30
2016,03,31,02,33,9.30
2016,03,31,02,34,9.30
2016,03,31,02,35,9.30
2016,03,31,02,36,9.20
2016,03,31,02,37,9.20
2016,03,31,02,38,9.20
2016,03,31,02,39,9.10
2016,03,31,02,40,9.10
2016,03,31,02,41,9.10
2016,03,31,02,42,9.10
2016,03,31,02,43,9.00
2016,03,31,02,44,9.00
2016,03,31,02,45,8.90
2016,03,31,02,46,8.90
2016,03,31,02,47,8.90
2016,03,31,02,48,8.80
2016,03,31,02,49,8.80
2016,03,31,02,50,8.80
2016,03,31,02,51,8.70
2016,03,31,02,52,8.70
2016,03,31,02,53,8.70
2016,03,31,02,54,8.70
2016,03,31,02,55,8.70
2016,03,31,02,56,8.60
2016,03,31,02,57,8.60
2016,03,31,02,58,8.60
2016,03,31,02,59,8.60
2016,03,31,03,00,8.60
2016,03,31,03,01,8.60
2016,03,31,03,02,8.60
2016,03,31,03,03,8.60
2016,03,31,03,04,8.60
2016,03,31,03,05,8.50
2016,03,31,03,06,8.50
2016,03,31,03,07,8.50
2016,03,31,03,08,8.50
2016,03,31,03,09,8.40
2016,03,31,03,10,8.40
2016,03,31,03,11,8.40
2016,03,31,03,12,8.40
2016,03,31,03,13,8.40
2016,03,31,03,14,8.40
2016,03,31,03,15,8.30
2016,03,31,03,16,8.30
2016,03,31,03,17,8.30
2016,03,31,03,18,8.30
2016,03,31,03,19,8.30
2016,03,31,03,20,8.30
2016,03,31,03,21,8.30
2016,03,31,03,22,8.30
2016,03,31,03,23,8.30
2016,03,31,03,24,8.30
2016,03,31,03,25,8.30
2016,03,31,03,26,8.40
2016,03,31,03,27,8.40
2016,03,31,03,28,8.40
2016,03,31,03,29,8.50
2016,03,31,03,30,8.60
2016,03,31,03,31,8.80
2016,03,31,03,32,9.00
2016,03,31,03,33,9.10
2016,03,31,03,34,9.20
2016,03,31,03,35,9.20
2016,03,31,03,36,9.30
2016,03,31,03,37,9.40
2016,03,31,03,38,9.50
2016,03,31,03,39,9.50
2016,03,31,03,40,9.60
2016,03,31,03,41,9.60
2016,03,31,03,42,9.60
2016,03,31,03,43,9.60
2016,03,31,03,44,9.60
2016,03,31,03,45,9.60
2016,03,31,03,46,9.70
2016,03,31,03,47,9.70
2016,03,31,03,48,9.70
2016,03,31,03,49,9.70
2016,03,31,03,50,9.70
2016,03,31,03,51,9.70
2016,03,31,03,52,9.60
2016,03,31,03,53,9.60
2016,03,31,03,54,9.60
2016,03,31,03,55,9.60
2016,03,31,03,56,9.60
2016,03,31,03,57,9.70
2016,03,31,03,58,9.70
2016,03,31,03,59,9.70
2016,03,31,04,00,9.70
2016,03,31,04,01,9.70
2016,03,31,04,02,9.70
2016,03,31,04,03,9.70
2016,03,31,04,04,9.60
2016,03,31,04,05,9.60
2016,03,31,04,06,9.60
2016,03,31,04,07,9.60
2016,03,31,04,08,9.60
2016,03,31,04,09,9.50
2016,03,31,04,10,9.50
2016,03,31,04,11,9.40
2016,03,31,04,12,9.40
2016,03,31,04,13,9.30
2016,03,31,04,14,9.30
2016,03,31,04,15,9.20
2016,03,31,04,16,9.10
2016,03,31,04,17,9.10
2016,03,31,04,18,9.10
2016,03,31,04,19,9.10
2016,03,31,04,20,9.00
2016,03,31,04,21,9.00
2016,03,31,04,22,8.90
2016,03,31,04,23,8.90
2016,03,31,04,24,8.90
2016,03,31,04,25,8.80
2016,03,31,04,26,8.80
2016,03,31,04,27,8.80
2016,03,31,04,28,8.70
2016,03,31,04,29,8.70
2016,03,31,04,30,8.70
2016,03,31,04,31,8.70
2016,03,31,04,32,8.60
2016,03,31,04,33,8.60
2016,03,31,04,34,8.50
2016,03,31,04,35,8.50
2016,03,31,04,36,8.40
2016,03,31,04,37,8.40
2016,03,31,04,38,8.40
2016,03,31,04,39,8.30
2016,03,31,04,40,8.40
2016,03,31,04,41,8.40
2016,03,31,04,42,8.40
2016,03,31,04,43,8.40
2016,03,31,04,44,8.40
2016,03,31,04,45,8.40
2016,03,31,04,46,8.40
2016,03,31,04,47,8.40
2016,03,31,04,48,8.40
2016,03,31,04,49,8.40
2016,03,31,04,50,8.50
2016,03,31,04,51,8.40
2016,03,31,04,52,8.40
2016,03,31,04,53,8.40
2016,03,31,04,54,8.40
2016,03,31,04,55,8.40
2016,03,31,04,56,8.40
2016,03,31,04,57,8.40
2016,03,31,04,58,8.50
2016,03,31,04,59,8.50
2016,03,31,05,00,8.50
2016,03,31,05,01,8.50
2016,03,31,05,02,8.50
2016,03,31,05,03,8.60
2016,03,31,05,04,8.60
2016,03,31,05,05,8.60
2016,03,31,05,06,8.60
2016,03,31,05,07,8.70
2016,03,31,05,08,8.70
2016,03,31,05,09,8.70
2016,03,31,05,10,8.70
2016,03,31,05,11,8.70
2016,03,31,05,12,8.70
2016,03,31,05,13,8.70
2016,03,31,05,14,8.70
2016,03,31,05,15,8.70
2016,03,31,05,16,8.70
2016,03,31,05,17,8.70
2016,03,31,05,18,8.60
2016,03,31,05,19,8.60
2016,03,31,05,20,8.60
2016,03,31,05,21,8.60
2016,03,31,05,22,8.60
2016,03,31,05,23,8.60
2016,03,31,05,24,8.60
2016,03,31,05,25,8.50
2016,03,31,05,26,8.50
2016,03,31,05,27,8.50
2016,03,31,05,28,8.50
2016,03,31,05,29,8.50
2016,03,31,05,30,8.50
2016,03,31,05,31,8.50
2016,03,31,05,32,8.50
2016,03,31,05,33,8.40
2016,03,31,05,34,8.40
2016,03,31,05,35,8.40
2016,03,31,05,36,8.40
2016,03,31,05,37,8.40
2016,03,31,05,38,8.40
2016,03,31,05,39,8.40
2016,03,31,05,40,8.40
2016,03,31,05,41,8.40
2016,03,31,05,42,8.40
2016,03,31,05,43,8.40
2016,03,31,05,44,8.40
2016,03,31,05,45,8.30
2016,03,31,05,46,8.30
2016,03,31,05,47,8.30
2016,03,31,05,48,8.20
2016,03,31,05,49,8.20
2016,03,31,05,50,8.20
2016,03,31,05,51,8.20
2016,03,31,05,52,8.20
2016,03,31,05,53,8.20
2016,03,31,05,54,8.10
2016,03,31,05,55,8.10
2016,03,31,05,56,8.10
2016,03,31,05,57,8.10
2016,03,31,05,58,8.10
2016,03,31,05,59,8.00
2016,03,31,06,00,8.00
2016,03,31,06,01,8.00
2016,03,31,06,02,8.00
2016,03,31,06,03,7.90
2016,03,31,06,04,7.90
2016,03,31,06,05,7.90
2016,03,31,06,06,7.90
2016,03,31,06,07,7.90
2016,03,31,06,08,7.90
2016,03,31,06,09,7.90
2016,03,31,06,10,7.80
2016,03,31,06,11,7.80
2016,03,31,06,12,7.80
2016,03,31,06,13,7.80
2016,03,31,06,14,7.80
2016,03,31,06,15,7.70
2016,03,31,06,16,7.70
2016,03,31,06,17,7.70
2016,03,31,06,18,7.70
2016,03,31,06,19,7.70
2016,03,31,06,20,7.60
2016,03,31,06,21,7.60
2016,03,31,06,22,7.60
2016,03,31,06,23,7.60
2016,03,31,06,24,7.60
2016,03,31,06,25,7.50
2016,03,31,06,26,7.50
2016,03,31,06,27,7.50
2016,03,31,06,28,7.50
2016,03,31,06,29,7.50
2016,03,31,06,30,7.50
2016,03,31,06,31,7.50
2016,03,31,06,32,7.50
2016,03,31,06,33,7.50
2016,03,31,06,34,7.50
2016,03,31,06,35,7.50
2016,03,31,06,36,7.50
2016,03,31,06,37,7.50
2016,03,31,06,38,7.40
2016,03,31,06,39,7.40
2016,03,31,06,40,7.40
2016,03,31,06,41,7.30
2016,03,31,06,42,7.30
2016,03,31,06,43,7.30
2016,03,31,06,44,7.30
2016,03,31,06,45,7.30
2016,03,31,06,46,7.30
2016,03,31,06,47,7.30
2016,03,31,06,48,7.30
2016,03,31,06,49,7.30
2016,03,31,06,50,7.30
2016,03,31,06,51,7.30
2016,03,31,06,52,7.30
2016,03,31,06,53,7.30
2016,03,31,06,54,7.30
2016,03,31,06,55,7.30
2016,03,31,06,56,7.30
2016,03,31,06,57,7.30
2016,03,31,06,58,7.30
2016,03,31,06,59,7.20
2016,03,31,07,00,7.20
2016,03,31,07,01,7.20
2016,03,31,07,02,7.20
2016,03,31,07,03,7.20
2016,03,31,07,04,7.20
2016,03,31,07,05,7.20
2016,03,31,07,06,7.20
2016,03,31,07,07,7.20
2016,03,31,07,08,7.10
2016,03,31,07,09,7.10
2016,03,31,07,10,7.10
2016,03,31,07,11,7.10
2016,03,31,07,12,7.10
2016,03,31,07,13,7.10
2016,03,31,07,14,7.10
2016,03,31,07,15,7.10
2016,03,31,07,16,7.10
2016,03,31,07,17,7.10
2016,03,31,07,18,7.10
2016,03,31,07,19,7.10
2016,03,31,07,20,7.10
2016,03,31,07,21,7.10
2016,03,31,07,22,7.10
2016,03,31,07,23,7.10
2016,03,31,07,24,7.00
2016,03,31,07,25,7.00
2016,03,31,07,26,7.00
2016,03,31,07,27,7.00
2016,03,31,07,28,7.10
2016,03,31,07,29,7.10
2016,03,31,07,30,7.10
2016,03,31,07,31,7.10
2016,03,31,07,32,7.10
2016,03,31,07,33,7.20
2016,03,31,07,34,7.20
2016,03,31,07,35,7.20
2016,03,31,07,36,7.20
2016,03,31,07,37,7.20
2016,03,31,07,38,7.20
2016,03,31,07,39,7.20
2016,03,31,07,40,7.20
2016,03,31,07,41,7.20
2016,03,31,07,42,7.20
2016,03,31,07,43,7.20
2016,03,31,07,44,7.20
2016,03,31,07,45,7.20
2016,03,31,07,46,7.20
2016,03,31,07,47,7.30
2016,03,31,07,48,7.30
2016,03,31,07,49,7.30
2016,03,31,07,50,7.30
2016,03,31,07,51,7.30
2016,03,31,07,52,7.40
2016,03,31,07,53,7.40
2016,03,31,07,54,7.50
2016,03,31,07,55,7.50
2016,03,31,07,56,7.60
2016,03,31,07,57,7.60
2016,03,31,07,58,7.60
2016,03,31,07,59,7.60
2016,03,31,08,00,7.70
2016,03,31,08,01,7.70
2016,03,31,08,02,7.80
2016,03,31,08,03,7.80
2016,03,31,08,04,7.80
2016,03,31,08,05,7.90
2016,03,31,08,06,8.00
2016,03,31,08,07,8.00
2016,03,31,08,08,8.10
2016,03,31,08,09,8.10
2016,03,31,08,10,8.20
2016,03,31,08,11,8.30
2016,03,31,08,12,8.30
2016,03,31,08,13,8.40
2016,03,31,08,14,8.50
2016,03,31,08,15,8.50
2016,03,31,08,16,8.60
2016,03,31,08,17,8.60
2016,03,31,08,18,8.70
2016,03,31,08,19,8.70
2016,03,31,08,20,8.80
2016,03,31,08,21,8.80
2016,03,31,08,22,8.90
2016,03,31,08,23,8.90
2016,03,31,08,24,9.00
2016,03,31,08,25,9.00
2016,03,31,08,26,9.10
2016,03,31,08,27,9.10
2016,03,31,08,28,9.20
2016,03,31,08,29,9.20
2016,03,31,08,30,9.30
2016,03,31,08,31,9.30
2016,03,31,08,32,9.40
2016,03,31,08,33,9.40
2016,03,31,08,34,9.50
2016,03,31,08,35,9.60
2016,03,31,08,36,9.60
2016,03,31,08,37,9.70
2016,03,31,08,38,9.80
2016,03,31,08,39,9.80
2016,03,31,08,40,9.90
2016,03,31,08,41,10.00
2016,03,31,08,42,10.10
2016,03,31,08,43,10.20
2016,03,31,08,44,10.30
2016,03,31,08,45,10.30
2016,03,31,08,46,10.40
2016,03,31,08,47,10.50
2016,03,31,08,48,10.60
2016,03,31,08,49,10.60
2016,03,31,08,50,10.70
2016,03,31,08,51,10.70
2016,03,31,08,52,10.80
2016,03,31,08,53,10.80
2016,03,31,08,54,10.90
2016,03,31,08,55,11.00
2016,03,31,08,56,11.10
2016,03,31,08,57,11.20
2016,03,31,08,58,11.20
2016,03,31,08,59,11.30
2016,03,31,09,00,11.40
2016,03,31,09,01,11.40
2016,03,31,09,02,11.50
2016,03,31,09,03,11.50
2016,03,31,09,04,11.60
2016,03,31,09,05,11.60
2016,03,31,09,06,11.60
2016,03,31,09,07,11.70
2016,03,31,09,08,11.70
2016,03,31,09,09,11.70
2016,03,31,09,10,11.70
2016,03,31,09,11,11.70
2016,03,31,09,12,11.80
2016,03,31,09,13,11.80
2016,03,31,09,14,11.80
2016,03,31,09,15,11.90
2016,03,31,09,16,11.90
2016,03,31,09,17,12.00
2016,03,31,09,18,12.10
2016,03,31,09,19,12.10
2016,03,31,09,20,12.20
2016,03,31,09,21,12.20
2016,03,31,09,22,12.30
2016,03,31,09,23,12.40
2016,03,31,09,24,12.50
2016,03,31,09,25,12.50
2016,03,31,09,26,12.50
2016,03,31,09,27,12.50
2016,03,31,09,28,12.50
2016,03,31,09,29,12.60
2016,03,31,09,30,12.60
2016,03,31,09,31,12.60
2016,03,31,09,32,12.70
2016,03,31,09,33,12.70
2016,03,31,09,34,12.70
2016,03,31,09,35,12.60
2016,03,31,09,36,12.60
2016,03,31,09,37,12.50
2016,03,31,09,38,12.40
2016,03,31,09,39,12.40
2016,03,31,09,40,12.30
2016,03,31,09,41,12.30
2016,03,31,09,42,12.20
2016,03,31,09,43,12.20
2016,03,31,09,44,12.20
2016,03,31,09,45,12.20
2016,03,31,09,46,12.10
2016,03,31,09,47,12.10
2016,03,31,09,48,12.10
2016,03,31,09,49,12.10
2016,03,31,09,50,12.10
2016,03,31,09,51,12.10
2016,03,31,09,52,12.10
2016,03,31,09,53,12.00
2016,03,31,09,54,12.00
2016,03,31,09,55,11.90
2016,03,31,09,56,11.90
2016,03,31,09,57,11.90
2016,03,31,09,58,12.00
2016,03,31,09,59,12.00
2016,03,31,10,00,12.10
2016,03,31,10,01,12.10
2016,03,31,10,02,12.10
2016,03,31,10,03,12.20
2016,03,31,10,04,12.20
2016,03,31,10,05,12.30
2016,03,31,10,06,12.30
2016,03,31,10,07,12.40
2016,03,31,10,08,12.50
2016,03,31,10,09,12.50
2016,03,31,10,10,12.60
2016,03,31,10,11,12.60
2016,03,31,10,12,12.60
2016,03,31,10,13,12.70
2016,03,31,10,14,12.70
2016,03,31,10,15,12.70
2016,03,31,10,16,12.70
2016,03,31,10,17,12.80
2016,03,31,10,18,12.80
2016,03,31,10,19,12.80
2016,03,31,10,20,12.80
2016,03,31,10,21,12.80
2016,03,31,10,22,12.80
2016,03,31,10,23,12.80
2016,03,31,10,24,12.80
2016,03,31,10,25,12.80
2016,03,31,10,26,12.80
2016,03,31,10,27,12.90
2016,03,31,10,28,12.90
2016,03,31,10,29,12.90
2016,03,31,10,30,12.90
2016,03,31,10,31,13.00
2016,03,31,10,32,13.00
2016,03,31,10,33,13.10
2016,03,31,10,34,13.20
2016,03,31,10,35,13.30
2016,03,31,10,36,13.30
2016,03,31,10,37,13.30
2016,03,31,10,38,13.40
2016,03,31,10,39,13.50
2016,03,31,10,40,13.60
2016,03,31,10,41,13.80
2016,03,31,10,42,13.90
2016,03,31,10,43,14.00
2016,03,31,10,44,14.00
2016,03,31,10,45,14.10
2016,03,31,10,46,14.10
2016,03,31,10,47,14.20
2016,03,31,10,48,14.30
2016,03,31,10,49,14.30
2016,03,31,10,50,14.40
2016,03,31,10,51,14.30
2016,03,31,10,52,14.30
2016,03,31,10,53,14.20
2016,03,31,10,54,14.10
2016,03,31,10,55,14.00
2016,03,31,10,56,13.90
2016,03,31,10,57,13.70
2016,03,31,10,58,13.50
2016,03,31,10,59,13.30
2016,03,31,11,00,13.20
2016,03,31,11,01,13.10
2016,03,31,11,02,13.00
2016,03,31,11,03,12.90
2016,03,31,11,04,12.90
2016,03,31,11,05,12.90
2016,03,31,11,06,12.90
2016,03,31,11,07,12.90
2016,03,31,11,08,12.90
2016,03,31,11,09,13.00
2016,03,31,11,10,13.00
2016,03,31,11,11,13.10
2016,03,31,11,12,13.20
2016,03,31,11,13,13.20
2016,03,31,11,14,13.30
2016,03,31,11,15,13.30
2016,03,31,11,16,13.40
2016,03,31,11,17,13.50
2016,03,31,11,18,13.50
2016,03,31,11,19,13.60
2016,03,31,11,20,13.70
2016,03,31,11,21,13.70
2016,03,31,11,22,13.80
2016,03,31,11,23,13.80
2016,03,31,11,24,13.80
2016,03,31,11,25,13.80
2016,03,31,11,26,13.80
2016,03,31,11,27,13.80
2016,03,31,11,28,13.80
2016,03,31,11,29,13.80
2016,03,31,11,30,13.80
2016,03,31,11,31,13.80
2016,03,31,11,32,13.80
2016,03,31,11,33,13.80
2016,03,31,11,34,13.80
2016,03,31,11,35,13.80
2016,03,31,11,36,13.80
2016,03,31,11,37,13.80
2016,03,31,11,38,13.80
2016,03,31,11,39,13.80
2016,03,31,11,40,13.90
2016,03,31,11,41,13.90
2016,03,31,11,42,13.90
2016,03,31,11,43,14.00
2016,03,31,11,44,14.10
2016,03,31,11,45,14.20
2016,03,31,11,46,14.30
2016,03,31,11,47,14.40
2016,03,31,11,48,14.40
2016,03,31,11,49,14.50
2016,03,31,11,50,14.50
2016,03,31,11,51,14.60
2016,03,31,11,52,14.60
2016,03,31,11,53,14.60
2016,03,31,11,54,14.60
2016,03,31,11,55,14.50
2016,03,31,11,56,14.60
2016,03,31,11,57,14.60
2016,03,31,11,58,14.60
2016,03,31,11,59,14.50
2016,03,31,12,00,14.60
2016,03,31,12,01,14.60
2016,03,31,12,02,14.60
2016,03,31,12,03,14.60
2016,03,31,12,04,14.70
2016,03,31,12,05,14.70
2016,03,31,12,06,14.70
2016,03,31,12,07,14.70
2016,03,31,12,08,14.80
2016,03,31,12,09,14.90
2016,03,31,12,10,14.90
2016,03,31,12,11,14.90
2016,03,31,12,12,15.00
2016,03,31,12,13,15.10
2016,03,31,12,14,15.10
2016,03,31,12,15,15.20
2016,03,31,12,16,15.30
2016,03,31,12,17,15.30
2016,03,31,12,18,15.40
2016,03,31,12,19,15.50
2016,03,31,12,20,15.60
2016,03,31,12,21,15.70
2016,03,31,12,22,15.80
2016,03,31,12,23,15.90
2016,03,31,12,24,15.90
2016,03,31,12,25,16.00
2016,03,31,12,26,16.10
2016,03,31,12,27,16.20
2016,03,31,12,28,16.20
2016,03,31,12,29,16.30
2016,03,31,12,30,16.30
2016,03,31,12,31,16.30
2016,03,31,12,32,16.30
2016,03,31,12,33,16.40
2016,03,31,12,34,16.50
2016,03,31,12,35,16.50
2016,03,31,12,36,16.60
2016,03,31,12,37,16.70
2016,03,31,12,38,16.70
2016,03,31,12,39,16.80
2016,03,31,12,40,16.90
2016,03,31,12,41,16.90
2016,03,31,12,42,16.90
2016,03,31,12,43,16.90
2016,03,31,12,44,16.90
2016,03,31,12,45,17.00
2016,03,31,12,46,17.00
2016,03,31,12,47,17.00
2016,03,31,12,48,17.10
2016,03,31,12,49,17.10
2016,03,31,12,50,17.10
2016,03,31,12,51,17.10
2016,03,31,12,52,17.00
2016,03,31,12,53,17.00
2016,03,31,12,54,17.00
2016,03,31,12,55,17.00
2016,03,31,12,56,17.00
2016,03,31,12,57,17.00
2016,03,31,12,58,17.10
2016,03,31,12,59,17.00
2016,03,31,13,00,17.00
2016,03,31,13,01,17.00
2016,03,31,13,02,17.00
2016,03,31,13,03,17.10
2016,03,31,13,04,17.10
2016,03,31,13,05,17.20
2016,03,31,13,06,17.30
2016,03,31,13,07,17.30
2016,03,31,13,08,17.30
2016,03,31,13,09,17.40
2016,03,31,13,10,17.40
2016,03,31,13,11,17.40
2016,03,31,13,12,17.40
2016,03,31,13,13,17.30
2016,03,31,13,14,17.30
2016,03,31,13,15,17.30
2016,03,31,13,16,17.30
2016,03,31,13,17,17.30
2016,03,31,13,18,17.30
2016,03,31,13,19,17.30
2016,03,31,13,20,17.40
2016,03,31,13,21,17.40
2016,03,31,13,22,17.40
2016,03,31,13,23,17.50
2016,03,31,13,24,17.60
2016,03,31,13,25,17.70
2016,03,31,13,26,17.70
2016,03,31,13,27,17.60
2016,03,31,13,28,17.60
2016,03,31,13,29,17.50
2016,03,31,13,30,17.50
2016,03,31,13,31,17.50
2016,03,31,13,32,17.50
2016,03,31,13,33,17.60
2016,03,31,13,34,17.60
2016,03,31,13,35,17.60
2016,03,31,13,36,17.70
2016,03,31,13,37,17.70
2016,03,31,13,38,17.70
2016,03,31,13,39,17.60
2016,03,31,13,40,17.50
2016,03,31,13,41,17.50
2016,03,31,13,42,17.50
2016,03,31,13,43,17.40
2016,03,31,13,44,17.40
2016,03,31,13,45,17.40
2016,03,31,13,46,17.30
2016,03,31,13,47,17.30
2016,03,31,13,48,17.30
2016,03,31,13,49,17.40
2016,03,31,13,50,17.40
2016,03,31,13,51,17.50
2016,03,31,13,52,17.60
2016,03,31,13,53,17.70
2016,03,31,13,54,17.80
2016,03,31,13,55,17.80
2016,03,31,13,56,17.90
2016,03,31,13,57,18.00
2016,03,31,13,58,18.00
2016,03,31,13,59,18.10
2016,03,31,14,00,18.20
2016,03,31,14,01,18.20
2016,03,31,14,02,18.30
2016,03,31,14,03,18.40
2016,03,31,14,04,18.50
2016,03,31,14,05,18.60
2016,03,31,14,06,18.60
2016,03,31,14,07,18.60
2016,03,31,14,08,18.60
2016,03,31,14,09,18.60
2016,03,31,14,10,18.60
2016,03,31,14,11,18.60
2016,03,31,14,12,18.60
2016,03,31,14,13,18.60
2016,03,31,14,14,18.70
2016,03,31,14,15,18.70
2016,03,31,14,16,18.70
2016,03,31,14,17,18.70
2016,03,31,14,18,18.70
2016,03,31,14,19,18.80
2016,03,31,14,20,18.80
2016,03,31,14,21,18.80
2016,03,31,14,22,18.90
2016,03,31,14,23,18.90
2016,03,31,14,24,19.00
2016,03,31,14,25,19.00
2016,03,31,14,26,19.00
2016,03,31,14,27,19.00
2016,03,31,14,28,19.00
2016,03,31,14,29,19.00
2016,03,31,14,30,19.00
2016,03,31,14,31,18.80
2016,03,31,14,32,18.70
2016,03,31,14,33,18.50
2016,03,31,14,34,18.40
2016,03,31,14,35,18.20
2016,03,31,14,36,18.10
2016,03,31,14,37,17.90
2016,03,31,14,38,17.80
2016,03,31,14,39,17.70
2016,03,31,14,40,17.70
2016,03,31,14,41,17.70
2016,03,31,14,42,17.70
2016,03,31,14,43,17.70
2016,03,31,14,44,17.70
2016,03,31,14,45,17.60
2016,03,31,14,46,17.70
2016,03,31,14,47,17.70
2016,03,31,14,48,17.70
2016,03,31,14,49,17.70
2016,03,31,14,50,17.70
2016,03,31,14,51,17.70
2016,03,31,14,52,17.80
2016,03,31,14,53,17.80
2016,03,31,14,54,17.80
2016,03,31,14,55,17.80
2016,03,31,14,56,17.80
2016,03,31,14,57,17.80
2016,03,31,14,58,17.80
2016,03,31,14,59,17.90
2016,03,31,15,00,18.00
2016,03,31,15,01,18.10
2016,03,31,15,02,18.20
2016,03,31,15,03,18.20
2016,03,31,15,04,18.20
2016,03,31,15,05,18.10
2016,03,31,15,06,18.20
2016,03,31,15,07,18.20
2016,03,31,15,08,18.20
2016,03,31,15,09,18.20
2016,03,31,15,10,18.20
2016,03,31,15,11,18.20
2016,03,31,15,12,18.20
2016,03,31,15,13,18.20
2016,03,31,15,14,18.20
2016,03,31,15,15,18.10
2016,03,31,15,16,18.10
2016,03,31,15,17,18.10
2016,03,31,15,18,18.10
2016,03,31,15,19,18.10
2016,03,31,15,20,18.20
2016,03,31,15,21,18.20
2016,03,31,15,22,18.30
2016,03,31,15,23,18.30
2016,03,31,15,24,18.30
2016,03,31,15,25,18.40
2016,03,31,15,26,18.40
2016,03,31,15,27,18.40
2016,03,31,15,28,18.30
2016,03,31,15,29,18.30
2016,03,31,15,30,18.30
2016,03,31,15,31,18.20
2016,03,31,15,32,18.20
2016,03,31,15,33,18.30
2016,03,31,15,34,18.30
2016,03,31,15,35,18.30
2016,03,31,15,36,18.40
2016,03,31,15,37,18.40
2016,03,31,15,38,18.50
2016,03,31,15,39,18.60
2016,03,31,15,40,18.60
2016,03,31,15,41,18.60
2016,03,31,15,42,18.50
2016,03,31,15,43,18.40
2016,03,31,15,44,18.30
2016,03,31,15,45,18.20
2016,03,31,15,46,18.10
2016,03,31,15,47,18.00
2016,03,31,15,48,17.80
2016,03,31,15,49,17.70
2016,03,31,15,50,17.60
2016,03,31,15,51,17.50
2016,03,31,15,52,17.50
2016,03,31,15,53,17.40
2016,03,31,15,54,17.40
2016,03,31,15,55,17.40
2016,03,31,15,56,17.30
2016,03,31,15,57,17.40
2016,03,31,15,58,17.40
2016,03,31,15,59,17.40
2016,03,31,16,00,17.50
2016,03,31,16,01,17.50
2016,03,31,16,02,17.50
2016,03,31,16,03,17.60
2016,03,31,16,04,17.60
2016,03,31,16,05,17.50
2016,03,31,16,06,17.50
2016,03,31,16,07,17.50
2016,03,31,16,08,17.50
2016,03,31,16,09,17.50
2016,03,31,16,10,17.50
2016,03,31,16,11,17.60
2016,03,31,16,12,17.60
2016,03,31,16,13,17.70
2016,03,31,16,14,17.60
2016,03,31,16,15,17.60
2016,03,31,16,16,17.50
2016,03,31,16,17,17.50
2016,03,31,16,18,17.40
2016,03,31,16,19,17.50
2016,03,31,16,20,17.60
2016,03,31,16,21,17.60
2016,03,31,16,22,17.70
2016,03,31,16,23,17.80
2016,03,31,16,24,17.80
2016,03,31,16,25,17.80
2016,03,31,16,26,17.80
2016,03,31,16,27,17.80
2016,03,31,16,28,17.80
2016,03,31,16,29,17.70
2016,03,31,16,30,17.70
2016,03,31,16,31,17.70
2016,03,31,16,32,17.70
2016,03,31,16,33,17.70
2016,03,31,16,34,17.60
2016,03,31,16,35,17.60
2016,03,31,16,36,17.60
2016,03,31,16,37,17.60
2016,03,31,16,38,17.60
2016,03,31,16,39,17.60
2016,03,31,16,40,17.60
2016,03,31,16,41,17.60
2016,03,31,16,42,17.60
2016,03,31,16,43,17.60
2016,03,31,16,44,17.70
2016,03,31,16,45,17.70
2016,03,31,16,46,17.80
2016,03,31,16,47,17.80
2016,03,31,16,48,17.80
2016,03,31,16,49,17.90
2016,03,31,16,50,17.90
2016,03,31,16,51,17.90
2016,03,31,16,52,18.00
2016,03,31,16,53,18.00
2016,03,31,16,54,18.00
2016,03,31,16,55,18.00
2016,03,31,16,56,18.00
2016,03,31,16,57,18.00
2016,03,31,16,58,18.10
2016,03,31,16,59,18.10
2016,03,31,17,00,18.10
2016,03,31,17,01,18.20
2016,03,31,17,02,18.20
2016,03,31,17,03,18.20
2016,03,31,17,04,18.30
2016,03,31,17,05,18.30
2016,03,31,17,06,18.40
2016,03,31,17,07,18.50
2016,03,31,17,08,18.60
2016,03,31,17,09,18.60
2016,03,31,17,10,18.70
2016,03,31,17,11,18.70
2016,03,31,17,12,18.70
2016,03,31,17,13,18.70
2016,03,31,17,14,18.70
2016,03,31,17,15,18.70
2016,03,31,17,16,18.70
2016,03,31,17,17,18.80
2016,03,31,17,18,18.70
2016,03,31,17,19,18.70
2016,03,31,17,20,18.70
2016,03,31,17,21,18.60
2016,03,31,17,22,18.60
2016,03,31,17,23,18.50
2016,03,31,17,24,18.50
2016,03,31,17,25,18.40
2016,03,31,17,26,18.30
2016,03,31,17,27,18.30
2016,03,31,17,28,18.30
2016,03,31,17,29,18.20
2016,03,31,17,30,18.20
2016,03,31,17,31,18.20
2016,03,31,17,32,18.20
2016,03,31,17,33,18.20
2016,03,31,17,34,18.20
2016,03,31,17,35,18.20
2016,03,31,17,36,18.10
2016,03,31,17,37,18.10
2016,03,31,17,38,18.10
2016,03,31,17,39,18.10